Regional Weather Roundup
Issued by NWS Pendleton, OR

Home | Current Version | Previous Version | Text Only | Print | Product List | Glossary On
Versions: 1 2 3 4 5 6 7 8 9 10 11 12 13 14 15 16 17 18 19 20 21 22 23 24 25 26 27 28 29 30 31 32 33 34 35 36 37 38 39 40 41 42 43 44 45 46 47 48 49 50
000
ASUS46 KPDT 281825
RWRPDT
PENDLETON REGIONAL WEATHER ROUNDUP
NATIONAL WEATHER SERVICE PENDLETON OREGON
1100 AM PDT SAT MAR 28 2015

NOTE: FAIR INDICATES FEW OR NO CLOUDS BELOW 12,000 FEET WITH NO
SIGNIFICANT WEATHER AND/OR OBSTRUCTIONS TO VISIBILITY.

# INDICATES UNOFFICIAL STATION AND DATA

WAZ520-281910-
EAST SLOPES OF WASHINGTON CASCADES

CITY            SKY/WX      TMP DP  RH  WIND    PRES   REMARKS
#BUMPING DAM    N/A         42  N/A N/A S7      N/A
#CLE ELUM HS    N/A         47  36  65  W15     30.12F WCI 41
#CLE ELUM LAKE  N/A         43  38  82  W3      30.16S
#CLIFFDEL 2NW   N/A         45  33  63  N7      N/A
#GLENWOOD       N/A         50  41  71  SW8     30.22S
#MANASTASH CYN  N/A         50  30  46  NE5     30.15R
#NELSON         N/A         47  39  74  W1      30.20R
#NELSON 3SW     N/A         45  34  65  N1      30.38R
#NILE           N/A         53  34  48  W6      29.40S
#RONALD 2NW     N/A         45  16  31  N3      30.05F
#SNOWDEN        N/A         43  35  73  CALM    N/A
#TEANAWAY 4NE   N/A         49  40  71  W1      N/A
#TROUT LAKE 1NE N/A         49  40  71  W13G26  30.26R WCI 44
$$

WAZ521-281910-
SIMCOE HIGHLANDS

CITY            SKY/WX      TMP DP  RH  WIND    PRES   REMARKS
#CENTERVILLE 4W N/A         50  42  74  W20     30.04R
#CENTERVILLE 1SWN/A         49  40  71  W23     30.28R WCI 42
#GOLDENDALE     N/A         49  40  71  W21G31  N/A    WCI 42
#GOLDENDALE 1NE N/A         49  30  48  SW8     N/A
#GOLDENDALE 5WNWN/A         48  40  74  SW12    30.25  WCI 43
#GOODNOE HILLS  N/A         53  40  61  SW23    N/A
#LYLE 6NE       N/A         47  41  79  SW14G26 30.27R WCI 41
$$

WAZ026-281910-
KITTITAS VALLEY

CITY            SKY/WX      TMP DP  RH  WIND    PRES   REMARKS
ELLENSBURG AP   SUNNY       56  36  47  NW31G40 30.18R
6HR MIN TEMP:   40; 6HR MAX TEMP:   56;

#ELLENSBURG CWU N/A         53  36  52  N21     30.10R
#ELLENSBURG 3NE N/A         52  38  59  N14G26  30.17R
#ELLENSBURG 1E  N/A         53  36  52  NW5     N/A
#KITTITAS 4N    N/A         51  37  59  NW28    28.48S
#KITTITAS 3S    N/A         55  41  59  NW12    30.14R
#THORP 6N       N/A         46  37  71  NW26G52 30.13R WCI 37
$$

WAZ027-281910-
YAKIMA VALLEY

CITY            SKY/WX      TMP DP  RH  WIND    PRES   REMARKS
SUNNYSIDE AP    PTCLDY      60  33  36  SW18G24 30.23S
YAKIMA AIRPORT  SUNNY       63  31  30  W21G29  30.20R
6HR MIN TEMP:   43; 6HR MAX TEMP:   63;

YAKIMA-VAGABOND SUNNY       59  31  34  W13     30.19R
#DONALD 2NE     N/A         63  22  21  NE2     29.05R
#GRANDVIEW      N/A         59  35  40  SW6     30.23R
#MABTON         N/A         59  39  47  SW15G26 30.23R
#MOXEE 2E       N/A         60   9  13  NW12    30.09R
#NACHES 2SW     N/A         57  35  43  SW7     30.18R
#OUTLOOK DOT    N/A         N/A N/A N/A W15     N/A
#SELAH 8E       N/A         57  29  34  W10G24  N/A
#TERRACE HTS    N/A         60  34  37  NW3     30.15R
#TOPPENISH      N/A         60  34  37  W12G29  30.11R
#WAPATO 4NE     N/A         63  22  21  NE2     29.05R
#W YAKIMA       N/A         58  34  40  W6      30.17R
#WHITE SWAN 5E  N/A         61  37  41  S21G32  30.20R
#WILEY CITY 3W  N/A         57  25  29  N5      30.18R
$$

WAZ028-281910-
LOWER COLUMBIA BASIN...WASHINGTON

CITY            SKY/WX      TMP DP  RH  WIND    PRES   REMARKS
HANFORD         MOSUNNY     61  32  33  SW29G44 30.17F
6HR MIN TEMP:   49; 6HR MAX TEMP:   62;

PASCO           SUNNY       60  39  46  W29G44  30.24R
6HR MIN TEMP:   50; 6HR MAX TEMP:   60;

PROSSER AWOS    N/A         61  39  44  S22     30.28R
RICHLAND AWOS   SUNNY       63  41  44  SW24G39 30.22R
#BASIN CITY 5SW N/A         61  36  39  SW14G26 30.20R
#BENTON CITY    N/A         57  41  55  SW26G43 30.13R
#CONNELL 5N     N/A         57  41  55  W16     30.19R
#CONNELL 5NW    N/A         57  42  57  W17G26  30.15R
#ELTOPIA        N/A         61  43  51  W12G26  30.18R
#ELTOPIA 6NW    N/A         59  38  45  SW26G43 29.15R
#KAHLOTUS       N/A         54  43  66  W30G37  30.19R
#KENNEWICK 3S   N/A         56  41  57  W15G35  30.19S
#PASCO-BROADMOORN/A         61  39  44  SW16    30.11S
#PATERSON       N/A         57  40  53  W25G43  30.27R
#PROSSER        N/A         56  38  51  S15G28  30.23R
#SAGEMOOR 2W    N/A         60  45  58  SW13    30.04R
#TOUCHET 2S     N/A         57  43  59  W23G39  30.21S
#WEST PASCO     N/A         61  42  50  SW13    30.24F
$$

WAZ029-281910-
FOOTHILLS OF THE BLUES...WASHINGTON

CITY            SKY/WX      TMP DP  RH  WIND    PRES   REMARKS
WALLA WALLA AP  SUNNY       57  39  51  SW28G35 30.27R
6HR MIN TEMP:   49; 6HR MAX TEMP:   57;

#DAYTON SCHOOL  N/A         51  35  54  N12     30.26R
#LOWDEN 2SE     N/A         57  41  55  W28G38  30.22S
#PLEASANT VIEW 1N/A         53  45  74  S18G29  30.23R
#PRESCOTT       N/A         56  43  62  SW13G24 30.23R
#SUDBURY        N/A         58  N/A N/A CALM    N/A
#WHITMAN COLLEGEN/A         55  39  55  SW12G37 30.30R
#WAITSBURG 5S   N/A         51  42  71  SW20G31 30.33R
#WAITSBURG 8N   N/A         53  22  29  S24     30.12R
#WALLA WALLA 5E N/A         55  43  64  SW24G33 N/A
#WALLA WALLA U  N/A         57  41  55  W6      30.25S
#WHITMAN MISSIONN/A         57  43  59  SW22G35 30.27S
$$

WAZ030-281910-
BLUE MOUNTAINS...WASHINGTON

CITY            SKY/WX      TMP DP  RH  WIND    PRES   REMARKS
#DIXIE 5SE      N/A         44  34  68  S23G33  30.19R WCI 35
$$

ORZ009-041-WAZ024-281910-
COLUMBIA RIVER GORGE

CITY            SKY/WX      TMP DP  RH  WIND    PRES   REMARKS
HOOD RIVER AP   MOCLDY      54  45  71  NW13    30.32S
THE DALLES AP   CLOUDY      56  43  62  NW13    30.33R
6HR MIN TEMP:   45; 6HR MAX TEMP:   57;

#ARLINGTON AIRPON/A         56  42  59  W16     29.98S
#CELILO DOT     N/A         56  39  53  SW6     N/A
#LYLE           N/A         54  44  69  W9      30.35R
#MOSIER 1S      N/A         51  35  54  W8      30.29R
#MURDOCK        N/A         55  45  69  W15     30.36R
#RUFUS DOT      N/A         56  37  49  W15     N/A

$$

ORZ510-281910-
NORTH CENTRAL OREGON

CITY            SKY/WX      TMP DP  RH  WIND    PRES   REMARKS
#COW CYN RST AREN/A         45  29  53  SW14    N/A    WCI 39
#DUFUR 9E       N/A         49  37  63  W8      30.35R
#GRASS VALLEY 1SN/A         50  37  61  SW20G28 30.33R
#KENT DOT       N/A         48  29  47  SW22    N/A    WCI 41
#MAUPIN SCHOOL  N/A         54  36  50  W10     30.36R
#MORO SCHOOL    N/A         53  41  64  W9      30.32R
#SHANIKO 5WSW   N/A         44  26  49  SW20    N/A    WCI 36
#TYGH VALLEY 2NEN/A         53  40  61  SW16    30.29R
#WAPANITIA AIRPON/A         49  37  63  W14     30.32R WCI 44
#WASCO DOT      N/A         54  38  55  SW6     N/A
#WASCO 5NE      N/A         54  40  59  N5      30.30R
$$

ORZ511-281910-
CENTRAL OREGON

CITY            SKY/WX      TMP DP  RH  WIND    PRES   REMARKS
BEND AIRPORT    MOCLDY      46  27  47  SW13    30.35S WCI 40
MADRAS AIRPORT  MOCLDY      50  30  46  W7      30.37R
PRINEVILLE AP   PTCLDY      48  28  46  CALM    30.36R
REDMOND AIRPORT MOCLDY      48  28  46  SW6     30.36R
6HR MIN TEMP:   33; 6HR MAX TEMP:   49;

#BEND 6E        N/A         46  24  42  CALM    30.30R
#BEND 1SW       N/A         44  32  62  NW2     N/A
#BEND-AWBREY    N/A         47  34  60  SW7     30.28S
#BEND-KIM LN    N/A         48  31  51  SW6     30.33R
#CULVER         N/A         47  33  58  S10     30.32R
#CULVER 1E      N/A         48  34  58  SW9     30.37
#LAKE BILLY CHINN/A         49  13  23  W7      30.38S
#POWELL BUTTE   N/A         52  31  44  W3      29.95R
#PRINEVILLE 3N  N/A         49  32  52  S2      30.27R
#WARM SPRINGS   N/A         55  35  47  CALM    30.32R

$$


ORZ509-281910-
EAST SLOPES OF OREGON CASCADES

CITY            SKY/WX      TMP DP  RH  WIND    PRES   REMARKS
#BLUE BOX PASS  N/A         36  -13 11  NW2     N/A
#CAMP SHERMAN   N/A         45  35  68  CALM    30.42R
#LA PINE 4NW    N/A         40  28  62  CALM    30.36R
#LAVA BUTTE DOT N/A         42  25  51  SE2     N/A
#SISTERS AIRPOR N/A         46  36  68  N5      30.17S
#SISTERS ODOT   N/A         47  N/A N/A S3      N/A
#SISTERS 3N     N/A         49  31  50  CALM    30.37R
#SUNRIVER       N/A         41  30  65  SE2     30.20R
#TUMALO 3W      N/A         45  28  51  E3      30.19R
#WANOGA BUTTE D N/A         33  21  61  SW5     N/A

$$

ORZ044-281910-
LOWER COLUMBIA BASIN...OREGON

CITY            SKY/WX      TMP DP  RH  WIND    PRES   REMARKS
HERMISTON       SUNNY       60  37  42  W28G40  30.28R
6HR MIN TEMP:   47; 6HR MAX TEMP:   60;

#BOARDMAN SCHOOLN/A         59  38  45  NW14    30.29R
#BOARDMAN 8SW   N/A         59  40  49  SW20    30.30R
#ECHO 8SW       N/A         58  38  47  W22     30.26R
#IONE SCHOOL    N/A         56  35  45  SW17G26 30.30R
#IRRIGON 4NW    N/A         59  40  49  SW26G35 N/A
#UMATILLA       N/A         59  38  45  SW22G37 30.19S
$$

ORZ507-281910-
NORTHERN FOOTHILLS OF THE BLUES

CITY            SKY/WX      TMP DP  RH  WIND    PRES   REMARKS
PENDLETON AIRPT SUNNY       54  37  52  W29G38  30.29R
6HR MIN TEMP:   46; 6HR MAX TEMP:   54;

#ADAMS 3WNW     N/A         53  39  59  SW23G35 30.25S
#ATHENA         N/A         52  38  59  W17G31  30.27S
#CAYUSE         N/A         53  37  54  W26G36  30.25F
#HELIX SCHOOL   N/A         52  38  59  W22G35  30.25R
#HELIX 3N       N/A         51  39  63  W32G40  30.23R
#HOLDMAN 5SE    N/A         55  41  59  SW22G36 30.28R
#HOLDMAN 6E     N/A         52  39  61  N25G33  30.05F
#M-F FERNDALE   N/A         57  39  51  SW7     30.24S
#M-F GROVE ELEM N/A         56  37  49  SW17G31 30.26R
#M-FREEWATER 5SEN/A         53  39  59  SW24G35 30.26R
#PENDLETON DNTN N/A         59  34  39  NW7     30.28S
#PDT AQUATIC CTRN/A         57  36  45  W17G26  30.31R
#PENDLETON 5NE  N/A         54  39  57  W5      30.26R
#PDT SUNRIDGE   N/A         56  37  49  SW18G33 30.31R
#PENDLETON 7NW  N/A         56  41  57  W20G29  N/A
#PILOT ROCK     N/A         57  35  43  W7      30.30S
#TUTUILLA       N/A         56  39  53  W17G26  30.29R
#UMAPINE 2E     N/A         57  43  59  SW17G28 30.23R
#WESTON SCHOOL  N/A         51  34  52  W12G32  30.27R

$$

ORZ508-281910-
SOUTHERN FOOTHILLS OF THE BLUES

CITY            SKY/WX      TMP DP  RH  WIND    PRES   REMARKS
LEXINGTON       MOSUNNY     57  36  45  SW24    30.34R
#AJAX           N/A         50  29  44  S13G26  30.23R
#CONDON SCHOOL  N/A         47  33  58  CALM    30.27R
#CONDON 5W      N/A         45  30  55  SW20G29 30.28R WCI 37
#FOSSIL SCHOOL  N/A         48  34  58  W7      30.29R
#HEPPNER EOC    N/A         52  34  50  W15G29  30.26R
#HEPPNER 4NE    N/A         48  34  58  SW13    30.29R WCI 43
#LEXINGTON 2SE  N/A         56  35  45  W14     30.29R
#MIKKALO        N/A         54  35  48  W9      30.30R
#OLEX 4N        N/A         55  38  53  SW18    30.30R
#RUGGS 5NE      N/A         49  33  54  W22     30.46R WCI 42
#RUGGS 2SW      N/A         49  34  56  W12G25  30.30R WCI 44

$$

ORZ502-503-281910-
BLUE MOUNTAINS

CITY            SKY/WX      TMP DP  RH  WIND    PRES   REMARKS
MEACHAM         PTCLDY      46  33  60  W10     30.27S
6HR MIN TEMP:   38; 6HR MAX TEMP:   46; 6HR PCP:  TRACE;

#BATTLE MTN DOT N/A         45  34  65  S5      N/A
#HEPPNER 15SE   N/A         43  30  60  S7      30.21R
#LADD CYN SMT   N/A         48  27  44  NW14    N/A    WCI 42
#LADD CREEK ODOTN/A         50  33  52  N1      N/A
#LONG CREEK HS  N/A         45  33  63  CALM    30.29R
#N POWDER DOT   N/A         51  31  46  N6      N/A
#PIKES PEAK     N/A         41  33  73  SW44G52 27.99S WCI 28
#TOLLGATE       N/A         33  32  96  SW7     30.16R
#TROY SCHOOL    N/A         57  38  49  SW5     30.05S
#UKIAH          N/A         49  34  56  SW6     30.29R
#WESTON 4E      N/A         45  37  73  SW12G24 30.17R WCI 39
$$

ORZ505-281910-
JOHN DAY BASIN

CITY            SKY/WX      TMP DP  RH  WIND    PRES   REMARKS
JOHN DAY        SUNNY       52  27  38  W17     30.33R
#JOHN DAY KJDY  N/A         54  46  74  SW3     30.41R
#DAYVILLE SCHOOLN/A         53  32  45  N5      30.28R
#MITCHELL       N/A         51  36  56  CALM    30.45R
#MONUMENT HS    N/A         53  31  43  W6      30.33R
#MT. VERNON 5SE N/A         47  30  51  NW5     30.28R
#WINLOCK        N/A         50  35  56  SW14    30.39R
$$

ORZ506-281910-
OCHOCO AND JOHN DAY HIGHLANDS

CITY            SKY/WX      TMP DP  RH  WIND    PRES   REMARKS
#BUCK CREEK DOT N/A         46  46  100 NW12    N/A    WCI 40
#HORSE RIDGE DO N/A         47  19  32  SW6     N/A
#KEYES SMT DOT  N/A         43  28  55  CALM    N/A
#PAULINA SCHOOL N/A         69  35  28  W3      30.31R
#PINE MTN OBS   N/A         36  19  50  NW5     N/A
#PRAIRIE CITY   N/A         51  33  50  W6      30.32F
#SENECA         N/A         45  N/A N/A N9      N/A
#SENECA 9NW     N/A         43  29  57  NE2     30.22R
$$

ORZ049-281910-
GRANDE RONDE VALLEY

CITY            SKY/WX      TMP DP  RH  WIND    PRES   REMARKS
LA GRANDE       MOCLDY      52  28  39  NW17    30.28R
#COVE           N/A         51  39  63  W10     30.27S
#COVE SCHOOL    N/A         51  34  52  NW3     30.24R
#ELGIN 3N       N/A         51  32  48  W2      30.23R
#ELGIN 1E       N/A         50  34  54  W1      N/A
#IMBLER SCHOOL  N/A         50  34  54  NW12    30.22S
#ISLAND CITY 4N N/A         52  48  86  CALM    30.38R
#LADD CYN DOT   N/A         51  32  48  N6      N/A
#UNION 1S       N/A         52  36  54  N7      30.15R
$$

ORZ050-281910-
WALLOWA COUNTY

CITY            SKY/WX      TMP DP  RH  WIND    PRES   REMARKS
JOSEPH AIRPORT  SUNNY       50  23  34  SW8     30.25R
#ENTERPRISE HS  N/A         47  31  53  NW7     30.22S
#IMNAHA 10S     N/A         50  34  54  NE1     30.24R
#JOSEPH 3N      N/A         46  25  43  N15G25  30.23R WCI 40
#JOSEPH 3W      N/A         47  22  37  NE1     30.06R
#LOSTINE        N/A         48  32  54  NW3     30.01R
#MT HOWARD 8000 N/A         27  16  63  W7      30.21R
#PROMISE 1S     N/A         43  34  70  E7      30.34R
#SHEEP RDG 7000 N/A         27  23  85  CALM    30.09R
#WALLOWA SCHOOL N/A         48  33  56  W3      31.15R



$$



USA.gov is the U.S. government's official web portal to all federal, state and local government web resources and services.